Time,TemperatureF,DewpointF,PressureIn,WindDirection,WindDirectionDegrees,WindSpeedMPH,WindSpeedGustMPH,Humidity,HourlyPrecipIn,Conditions,Clouds,dailyrainin,SoftwareType,DateUTC
2013-05-29 00:01:00,54.3,9.1,29.69,ESE,112,5.8,-999.0,16,-99.99,,,0.00,Acu-Link.com,2013-05-29 06:01:00,
2013-05-29 00:16:00,54.3,9.1,29.69,ESE,112,7.8,-999.0,16,-99.99,,,0.00,Acu-Link.com,2013-05-29 06:16:00,
2013-05-29 00:31:00,54.1,10.3,29.68,ESE,112,8.3,-999.0,17,-99.99,,,0.00,Acu-Link.com,2013-05-29 06:31:00,
2013-05-29 00:46:00,53.1,9.5,29.69,SE,135,8.9,-999.0,17,-99.99,,,0.00,Acu-Link.com,2013-05-29 06:46:00,
2013-05-29 01:01:00,54.0,11.5,29.70,South,180,5.3,-999.0,18,-99.99,,,0.00,Acu-Link.com,2013-05-29 07:01:00,
2013-05-29 01:16:00,52.9,10.6,29.70,ESE,112,4.7,-999.0,18,-99.99,,,0.00,Acu-Link.com,2013-05-29 07:16:00,
2013-05-29 01:32:00,52.3,11.3,29.70,SE,135,4.2,-999.0,19,-99.99,,,0.00,Acu-Link.com,2013-05-29 07:32:00,
2013-05-29 01:47:00,56.7,14.9,29.71,SW,225,5.8,-999.0,19,-99.99,,,0.00,Acu-Link.com,2013-05-29 07:47:00,
2013-05-29 02:02:00,53.2,12.0,29.71,ESE,112,2.2,-999.0,19,-99.99,,,0.00,Acu-Link.com,2013-05-29 08:02:00,
2013-05-29 02:17:00,52.3,11.3,29.72,ESE,112,2.7,-999.0,19,-99.99,,,0.00,Acu-Link.com,2013-05-29 08:17:00,
2013-05-29 02:32:00,51.4,12.8,29.72,East,90,3.7,-999.0,21,-99.99,,,0.00,Acu-Link.com,2013-05-29 08:32:00,
2013-05-29 02:48:00,50.5,13.1,29.71,ESE,112,4.2,-999.0,22,-99.99,,,0.00,Acu-Link.com,2013-05-29 08:48:00,
2013-05-29 03:03:00,47.5,13.5,29.71,ESE,112,4.7,-999.0,25,-99.99,,,0.00,Acu-Link.com,2013-05-29 09:03:00,
2013-05-29 03:18:00,46.2,14.1,29.70,ESE,112,6.3,-999.0,27,-99.99,,,0.00,Acu-Link.com,2013-05-29 09:18:00,
2013-05-29 03:33:00,45.3,14.1,29.72,ESE,112,3.7,-999.0,28,-99.99,,,0.00,Acu-Link.com,2013-05-29 09:33:00,
2013-05-29 03:49:00,44.8,16.0,29.72,SE,135,4.7,-999.0,31,-99.99,,,0.00,Acu-Link.com,2013-05-29 09:49:00,
2013-05-29 04:04:00,43.5,16.3,29.72,SE,135,4.7,-999.0,33,-99.99,,,0.00,Acu-Link.com,2013-05-29 10:04:00,
2013-05-29 04:19:00,44.6,18.0,29.71,ESE,112,3.7,-999.0,34,-99.99,,,0.00,Acu-Link.com,2013-05-29 10:19:00,
2013-05-29 04:34:00,44.6,18.7,29.72,ESE,112,4.2,-999.0,35,-99.99,,,0.00,Acu-Link.com,2013-05-29 10:34:00,
2013-05-29 04:49:00,44.6,19.3,29.71,SE,135,3.2,-999.0,36,-99.99,,,0.00,Acu-Link.com,2013-05-29 10:49:00,
2013-05-29 05:05:00,43.7,19.8,29.72,SE,135,2.2,-999.0,38,-99.99,,,0.00,Acu-Link.com,2013-05-29 11:05:00,
2013-05-29 05:20:00,43.7,21.0,29.72,SE,135,2.7,-999.0,40,-99.99,,,0.00,Acu-Link.com,2013-05-29 11:20:00,
2013-05-29 05:35:00,43.5,23.1,29.72,SE,135,0.0,-999.0,44,-99.99,,,0.00,Acu-Link.com,2013-05-29 11:35:00,
2013-05-29 05:51:00,44.8,25.8,29.72,SE,135,2.2,-999.0,47,-99.99,,,0.00,Acu-Link.com,2013-05-29 11:51:00,
2013-05-29 06:06:00,44.8,25.3,29.71,SE,135,0.0,-999.0,46,-99.99,,,0.00,Acu-Link.com,2013-05-29 12:06:00,
2013-05-29 06:21:00,45.1,25.6,29.72,SE,135,0.0,-999.0,46,-99.99,,,0.00,Acu-Link.com,2013-05-29 12:21:00,
2013-05-29 06:37:00,49.3,28.9,29.73,NE,45,1.7,-999.0,45,-99.99,,,0.00,Acu-Link.com,2013-05-29 12:37:00,
2013-05-29 06:52:00,52.0,30.2,29.74,NE,45,0.0,-999.0,43,-99.99,,,0.00,Acu-Link.com,2013-05-29 12:52:00,
2013-05-29 07:07:00,52.2,30.4,29.73,ESE,112,3.7,-999.0,43,-99.99,,,0.00,Acu-Link.com,2013-05-29 13:07:00,
2013-05-29 07:22:00,55.0,31.7,29.73,SSW,202,3.2,-999.0,41,-99.99,,,0.00,Acu-Link.com,2013-05-29 13:22:00,
2013-05-29 07:37:00,58.5,34.9,29.72,West,270,6.8,-999.0,41,-99.99,,,0.00,Acu-Link.com,2013-05-29 13:37:00,
2013-05-29 07:53:00,60.8,35.0,29.72,NNE,22,5.8,-999.0,38,-99.99,,,0.00,Acu-Link.com,2013-05-29 13:53:00,
2013-05-29 08:08:00,63.7,37.6,29.70,West,270,2.7,-999.0,38,-99.99,,,0.00,Acu-Link.com,2013-05-29 14:08:00,
2013-05-29 08:23:00,62.6,36.6,29.71,NW,315,6.3,-999.0,38,-99.99,,,0.00,Acu-Link.com,2013-05-29 14:23:00,
2013-05-29 08:39:00,65.7,38.0,29.69,West,270,4.7,-999.0,36,-99.99,,,0.00,Acu-Link.com,2013-05-29 14:39:00,
2013-05-29 08:54:00,63.3,35.9,29.70,WNW,292,6.8,-999.0,36,-99.99,,,0.00,Acu-Link.com,2013-05-29 14:54:00,
2013-05-29 09:09:00,63.0,35.6,29.70,WSW,247,8.9,-999.0,36,-99.99,,,0.00,Acu-Link.com,2013-05-29 15:09:00,
2013-05-29 09:24:00,63.1,35.0,29.69,West,270,4.2,-999.0,35,-99.99,,,0.00,Acu-Link.com,2013-05-29 15:24:00,
2013-05-29 09:39:00,63.0,34.2,29.69,West,270,14.5,-999.0,34,-99.99,,,0.00,Acu-Link.com,2013-05-29 15:39:00,
2013-05-29 09:54:00,64.6,34.1,29.69,WSW,247,15.0,-999.0,32,-99.99,,,0.00,Acu-Link.com,2013-05-29 15:54:00,
2013-05-29 10:09:00,65.3,33.9,29.68,WSW,247,7.3,-999.0,31,-99.99,,,0.00,Acu-Link.com,2013-05-29 16:09:00,
2013-05-29 10:24:00,66.0,33.7,29.68,WSW,247,15.5,-999.0,30,-99.99,,,0.00,Acu-Link.com,2013-05-29 16:24:00,
2013-05-29 10:39:00,65.7,34.2,29.67,West,270,7.8,-999.0,31,-99.99,,,0.00,Acu-Link.com,2013-05-29 16:39:00,
2013-05-29 10:54:00,66.4,26.4,29.68,SW,225,17.1,-999.0,22,-99.99,,,0.00,Acu-Link.com,2013-05-29 16:54:00,
2013-05-29 11:10:00,66.4,25.3,29.68,West,270,17.6,-999.0,21,-99.99,,,0.00,Acu-Link.com,2013-05-29 17:10:00,
2013-05-29 11:25:00,71.4,28.2,29.68,WSW,247,14.0,-999.0,20,-99.99,,,0.00,Acu-Link.com,2013-05-29 17:25:00,
2013-05-29 11:40:00,68.0,25.4,29.69,WSW,247,14.5,-999.0,20,-99.99,,,0.00,Acu-Link.com,2013-05-29 17:40:00,
2013-05-29 11:55:00,68.7,23.5,29.68,SW,225,21.2,-999.0,18,-99.99,,,0.00,Acu-Link.com,2013-05-29 17:55:00,
2013-05-29 12:10:00,67.8,21.4,29.67,West,270,21.7,-999.0,17,-99.99,,,0.00,Acu-Link.com,2013-05-29 18:10:00,
2013-05-29 12:25:00,69.3,22.6,29.66,WSW,247,21.7,-999.0,17,-99.99,,,0.00,Acu-Link.com,2013-05-29 18:25:00,
2013-05-29 12:40:00,69.4,22.7,29.67,West,270,8.3,-999.0,17,-99.99,,,0.00,Acu-Link.com,2013-05-29 18:40:00,
2013-05-29 12:55:00,71.1,24.1,29.67,WSW,247,21.2,-999.0,17,-99.99,,,0.00,Acu-Link.com,2013-05-29 18:55:00,
2013-05-29 13:10:00,71.2,24.2,29.67,WSW,247,11.9,-999.0,17,-99.99,,,0.00,Acu-Link.com,2013-05-29 19:10:00,
2013-05-29 13:25:00,70.5,22.2,29.67,West,270,21.2,-999.0,16,-99.99,,,0.00,Acu-Link.com,2013-05-29 19:25:00,
2013-05-29 13:41:00,70.5,20.6,29.67,West,270,22.7,-999.0,15,-99.99,,,0.00,Acu-Link.com,2013-05-29 19:41:00,
2013-05-29 13:56:00,71.6,21.5,29.66,WSW,247,21.7,-999.0,15,-99.99,,,0.00,Acu-Link.com,2013-05-29 19:56:00,
2013-05-29 14:11:00,72.0,20.2,29.66,West,270,16.6,-999.0,14,-99.99,,,0.00,Acu-Link.com,2013-05-29 20:11:00,
2013-05-29 14:26:00,70.2,15.2,29.66,SSW,202,11.4,-999.0,12,-99.99,,,0.00,Acu-Link.com,2013-05-29 20:26:00,
2013-05-29 14:41:00,70.5,19.0,29.65,WSW,247,17.1,-999.0,14,-99.99,,,0.00,Acu-Link.com,2013-05-29 20:41:00,
2013-05-29 14:56:00,70.9,13.8,29.65,West,270,22.7,-999.0,11,-99.99,,,0.00,Acu-Link.com,2013-05-29 20:56:00,
2013-05-29 15:11:00,71.4,16.2,29.64,WSW,247,20.7,-999.0,12,-99.99,,,0.00,Acu-Link.com,2013-05-29 21:11:00,
2013-05-29 15:27:00,71.4,16.2,29.63,WSW,247,20.7,-999.0,12,-99.99,,,0.00,Acu-Link.com,2013-05-29 21:27:00,
2013-05-29 15:42:00,70.0,15.1,29.63,West,270,26.9,-999.0,12,-99.99,,,0.00,Acu-Link.com,2013-05-29 21:42:00,
2013-05-29 15:57:00,68.9,12.2,29.63,SW,225,14.0,-999.0,11,-99.99,,,0.00,Acu-Link.com,2013-05-29 21:57:00,
2013-05-29 16:12:00,70.0,15.1,29.62,WSW,247,20.2,-999.0,12,-99.99,,,0.00,Acu-Link.com,2013-05-29 22:12:00,
2013-05-29 16:27:00,70.0,18.6,29.61,West,270,13.5,-999.0,14,-99.99,,,0.00,Acu-Link.com,2013-05-29 22:27:00,
2013-05-29 16:42:00,68.5,17.4,29.61,SW,225,22.7,-999.0,14,-99.99,,,0.00,Acu-Link.com,2013-05-29 22:42:00,
2013-05-29 16:58:00,68.2,15.5,29.62,West,270,18.6,-999.0,13,-99.99,,,0.00,Acu-Link.com,2013-05-29 22:58:00,
2013-05-29 17:13:00,70.5,17.3,29.61,West,270,13.0,-999.0,13,-99.99,,,0.00,Acu-Link.com,2013-05-29 23:13:00,
2013-05-29 17:28:00,70.3,13.3,29.60,WSW,247,22.2,-999.0,11,-99.99,,,0.00,Acu-Link.com,2013-05-29 23:28:00,
2013-05-29 17:43:00,69.4,14.6,29.61,WSW,247,20.7,-999.0,12,-99.99,,,0.00,Acu-Link.com,2013-05-29 23:43:00,
2013-05-29 17:58:00,66.2,13.9,29.61,West,270,25.8,-999.0,13,-99.99,,,0.00,Acu-Link.com,2013-05-29 23:58:00,
2013-05-29 18:13:00,68.7,12.1,29.61,WSW,247,23.8,-999.0,11,-99.99,,,0.00,Acu-Link.com,2013-05-30 00:13:00,
2013-05-29 18:28:00,68.5,11.9,29.61,WSW,247,16.6,-999.0,11,-99.99,,,0.00,Acu-Link.com,2013-05-30 00:28:00,
2013-05-29 18:43:00,68.4,11.9,29.61,West,270,9.9,-999.0,11,-99.99,,,0.00,Acu-Link.com,2013-05-30 00:43:00,
2013-05-29 18:59:00,68.0,11.6,29.61,West,270,13.5,-999.0,11,-99.99,,,0.00,Acu-Link.com,2013-05-30 00:59:00,
2013-05-29 19:14:00,66.7,12.5,29.62,WNW,292,11.4,-999.0,12,-99.99,,,0.00,Acu-Link.com,2013-05-30 01:14:00,
2013-05-29 19:29:00,66.4,14.1,29.62,West,270,11.9,-999.0,13,-99.99,,,0.00,Acu-Link.com,2013-05-30 01:29:00,
2013-05-29 19:44:00,64.9,16.2,29.63,West,270,9.9,-999.0,15,-99.99,,,0.00,Acu-Link.com,2013-05-30 01:44:00,
2013-05-29 19:59:00,63.1,16.2,29.64,WNW,292,11.9,-999.0,16,-99.99,,,0.00,Acu-Link.com,2013-05-30 01:59:00,
2013-05-29 20:14:00,62.1,18.1,29.65,WNW,292,7.8,-999.0,18,-99.99,,,0.00,Acu-Link.com,2013-05-30 02:14:00,
2013-05-29 20:29:00,60.8,18.3,29.65,WNW,292,7.8,-999.0,19,-99.99,,,0.00,Acu-Link.com,2013-05-30 02:29:00,
2013-05-29 20:44:00,59.7,17.4,29.67,NW,315,5.8,-999.0,19,-99.99,,,0.00,Acu-Link.com,2013-05-30 02:44:00,
2013-05-29 21:00:00,59.0,16.8,29.67,West,270,4.2,-999.0,19,-99.99,,,0.00,Acu-Link.com,2013-05-30 03:00:00,
2013-05-29 21:15:00,57.6,15.7,29.68,NNW,337,0.0,-999.0,19,-99.99,,,0.00,Acu-Link.com,2013-05-30 03:15:00,
2013-05-29 21:30:00,55.9,16.6,29.70,NE,45,3.2,-999.0,21,-99.99,,,0.00,Acu-Link.com,2013-05-30 03:30:00,
2013-05-29 21:45:00,54.7,16.6,29.71,NE,45,2.2,-999.0,22,-99.99,,,0.00,Acu-Link.com,2013-05-30 03:45:00,
2013-05-29 22:00:00,54.3,18.3,29.73,NE,45,0.0,-999.0,24,-99.99,,,0.00,Acu-Link.com,2013-05-30 04:00:00,
2013-05-29 22:16:00,53.1,17.3,29.73,NNW,337,6.8,-999.0,24,-99.99,,,0.00,Acu-Link.com,2013-05-30 04:16:00,
2013-05-29 22:31:00,52.7,17.9,29.73,NE,45,0.0,-999.0,25,-99.99,,,0.00,Acu-Link.com,2013-05-30 04:31:00,
2013-05-29 22:46:00,52.7,16.9,29.74,West,270,3.2,-999.0,24,-99.99,,,0.00,Acu-Link.com,2013-05-30 04:46:00,
2013-05-29 23:02:00,54.9,16.8,29.74,West,270,4.2,-999.0,22,-99.99,,,0.00,Acu-Link.com,2013-05-30 05:02:00,
2013-05-29 23:17:00,53.8,15.9,29.74,WSW,247,2.7,-999.0,22,-99.99,,,0.00,Acu-Link.com,2013-05-30 05:17:00,
2013-05-29 23:32:00,53.8,16.9,29.74,SW,225,3.7,-999.0,23,-99.99,,,0.00,Acu-Link.com,2013-05-30 05:32:00,
2013-05-29 23:48:00,54.0,17.1,29.74,SW,225,4.2,-999.0,23,-99.99,,,0.00,Acu-Link.com,2013-05-30 05:48:00,